This demonstration page uses our WeatherBlox Daily Observations layout. Learn more.

Left ArrowRight Arrow

34.02893, -84.19858

Hourly Observations for February 12, 2022

Temp ( °F °C ) Dew Point ( °F °C ) Humidity (%) Winds ( mph kmh ) Pressure ( in mb ) Visibility ( mi km ) Precip ( " mm )
12:53 am 00:53 Clear 47 8.3 32 0 56 56 S 3 6 30.04 1017 10 16 0.00 0.00
1:53 am 01:53 Clear 46 7.8 34 1.1 63 63 SSW 7 11 30.06 1018 10 16 0.00 0.00
2:53 am 02:53 Clear 48 8.9 35 1.7 61 61 SSW 10 17 30.06 1018 10 16 0.00 0.00
3:53 am 03:53 Clear 45 7.2 36 2.2 71 71 SW 6 9 30.07 1018 10 16 0.00 0.00
4:53 am 04:53 Clear 43 6.1 36 2.2 76 76 SSW 5 7 30.07 1018 10 16 0.00 0.00
5:53 am 05:53 Clear 45 7.2 37 2.8 74 74 SSW 3 6 30.09 1019 10 16 0.00 0.00
6:53 am 06:53 Clear 36 2.2 33 0.6 89 89 Calm 30.12 1020 9 14 0.00 0.00
7:53 am 07:53 Sunny 40 4.4 35 1.7 83 83 Calm 30.13 1020 7 11 0.00 0.00
8:53 am 08:53 Sunny 50 10 42 5.6 74 74 Calm 30.14 1021 9 14 0.00 0.00
9:53 am 09:53 Sunny 55 12.8 44 6.7 67 67 NW 8 13 30.13 1020 10 16 0.00 0.00
10:53 am 10:53 Sunny 59 15 44 6.7 58 58 NW 9 15 30.14 1021 10 16 0.00 0.00
11:53 am 11:53 Sunny 61 16.1 43 6.1 52 52 Calm 30.12 1020 10 16 0.00 0.00
12:53 pm 12:53 Sunny 63 17.2 42 5.6 47 47 W 6 9 30.09 1019 10 16 0.00 0.00
1:53 pm 13:53 Sunny 65 18.3 39 3.9 39 39 VRB 3 6 30.05 1018 10 16 0.00 0.00
2:53 pm 14:53 Sunny 66 18.9 38 3.3 36 36 WNW 8 13 30.03 1017 10 16 0.00 0.00
3:53 pm 15:53 Sunny 67 19.4 38 3.3 35 35 WSW 10 17 30.02 1017 10 16 0.00 0.00
4:53 pm 16:53 Mostly Cloudy 65 18.3 38 3.3 37 37 W 8 13 30.03 1017 10 16 0.00 0.00
5:53 pm 17:53 Mostly Sunny 63 17.2 39 3.9 41 41 NW 10 17 30.04 1017 10 16 0.00 0.00
6:53 pm 18:53 Clear 59 15 39 3.9 48 48 NNW 9 15 30.07 1018 10 16 0.00 0.00
7:53 pm 19:53 Clear 56 13.3 37 2.8 49 49 NNW 13 20 30.08 1019 10 16 0.00 0.00
8:53 pm 20:53 Clear 53 11.7 36 2.2 52 52 NW 7 11 30.07 1018 10 16 0.00 0.00
9:53 pm 21:53 Clear 50 10 35 1.7 57 57 NW 8 13 30.09 1019 10 16 0.00 0.00
10:53 pm 22:53 Clear 47 8.3 29 -1.7 50 50 WNW 10 17 30.11 1020 10 16 0.00 0.00
11:53 pm 23:53 Clear 45 7.2 29 -1.7 54 54 WNW 12 19 30.09 1019 10 16 0.00 0.00

Powered by AerisWeather